Time,TemperatureF,DewpointF,PressureIn,WindDirection,WindDirectionDegrees,WindSpeedMPH,WindSpeedGustMPH,Humidity,HourlyPrecipIn,Conditions,Clouds,dailyrainin,SolarRadiationWatts/m^2,SoftwareType,DateUTC
2013-07-26 00:12:00,71.0,69.0,-100.00,SW,236,5.0,7.0,92,0.01,,,0.01,0.000000,,2013-07-26 05:12:00,
2013-07-26 00:22:00,71.0,69.0,-100.00,SW,236,5.0,7.0,92,0.01,,,0.01,0.000000,,2013-07-26 05:22:00,
2013-07-26 00:32:00,71.0,69.0,-100.00,SW,236,5.0,7.0,92,0.01,,,0.01,0.000000,,2013-07-26 05:32:00,
2013-07-26 00:43:00,71.0,69.0,-100.00,SW,236,5.0,7.0,92,0.01,,,0.01,0.000000,,2013-07-26 05:43:00,
2013-07-26 01:12:00,70.0,65.0,-100.00,WSW,242,4.0,8.0,85,0.00,,,0.01,0.000000,,2013-07-26 06:12:00,
2013-07-26 01:22:00,70.0,65.0,-100.00,WSW,242,4.0,8.0,85,0.00,,,0.01,0.000000,,2013-07-26 06:22:00,
2013-07-26 01:33:00,70.0,65.0,-100.00,WSW,242,4.0,8.0,85,0.00,,,0.01,0.000000,,2013-07-26 06:33:00,
2013-07-26 01:43:00,70.0,65.0,-100.00,WSW,242,4.0,8.0,85,0.00,,,0.01,0.000000,,2013-07-26 06:43:00,
2013-07-26 02:12:00,69.0,65.0,-100.00,SW,226,6.0,8.0,86,0.03,,,0.04,0.000000,,2013-07-26 07:12:00,
2013-07-26 02:22:00,69.0,65.0,-100.00,SW,226,6.0,8.0,86,0.03,,,0.04,0.000000,,2013-07-26 07:22:00,
2013-07-26 02:32:00,69.0,65.0,-100.00,SW,226,6.0,8.0,86,0.03,,,0.04,0.000000,,2013-07-26 07:32:00,
2013-07-26 02:43:00,69.0,65.0,-100.00,SW,226,6.0,8.0,86,0.03,,,0.04,0.000000,,2013-07-26 07:43:00,
2013-07-26 03:12:00,66.0,65.0,-100.00,SW,236,6.0,12.0,97,0.36,,,0.40,0.000000,,2013-07-26 08:12:00,
2013-07-26 03:22:00,66.0,65.0,-100.00,SW,236,6.0,12.0,97,0.36,,,0.40,0.000000,,2013-07-26 08:22:00,
2013-07-26 03:32:00,66.0,65.0,-100.00,SW,236,6.0,12.0,97,0.36,,,0.40,0.000000,,2013-07-26 08:32:00,
2013-07-26 03:44:00,66.0,65.0,-100.00,SW,236,6.0,12.0,97,0.36,,,0.40,0.000000,,2013-07-26 08:44:00,
2013-07-26 04:12:00,66.0,65.0,-100.00,SSW,196,10.0,14.0,98,0.08,,,0.48,0.000000,,2013-07-26 09:12:00,
2013-07-26 04:22:00,66.0,65.0,-100.00,SSW,196,10.0,14.0,98,0.08,,,0.48,0.000000,,2013-07-26 09:22:00,
2013-07-26 04:32:00,66.0,65.0,-100.00,SSW,196,10.0,14.0,98,0.08,,,0.48,0.000000,,2013-07-26 09:32:00,
2013-07-26 04:43:00,66.0,65.0,-100.00,SSW,196,10.0,14.0,98,0.08,,,0.48,0.000000,,2013-07-26 09:43:00,
2013-07-26 05:12:00,66.0,65.0,-100.00,SSW,197,8.0,14.0,96,0.00,,,0.48,0.000000,,2013-07-26 10:12:00,
2013-07-26 05:22:00,66.0,65.0,-100.00,SSW,197,8.0,14.0,96,0.00,,,0.48,0.000000,,2013-07-26 10:22:00,
2013-07-26 05:33:00,66.0,65.0,-100.00,SSW,197,8.0,14.0,96,0.00,,,0.48,0.000000,,2013-07-26 10:33:00,
2013-07-26 05:42:00,66.0,65.0,-100.00,SSW,197,8.0,14.0,96,0.00,,,0.48,0.000000,,2013-07-26 10:42:00,
2013-07-26 06:12:00,66.0,65.0,-100.00,South,187,5.0,10.0,96,0.00,,,0.48,0.000000,,2013-07-26 11:12:00,
2013-07-26 06:22:00,66.0,65.0,-100.00,South,187,5.0,10.0,96,0.00,,,0.48,0.000000,,2013-07-26 11:22:00,
2013-07-26 06:32:00,66.0,65.0,-100.00,South,187,5.0,10.0,96,0.00,,,0.48,0.000000,,2013-07-26 11:32:00,
2013-07-26 06:43:00,66.0,65.0,-100.00,South,187,5.0,10.0,96,0.00,,,0.48,0.000000,,2013-07-26 11:43:00,
2013-07-26 07:12:00,67.0,66.0,-100.00,SSW,211,7.0,9.0,96,0.00,,,0.48,11.000000,,2013-07-26 12:12:00,
2013-07-26 07:22:00,67.0,66.0,-100.00,SSW,211,7.0,9.0,96,0.00,,,0.48,11.000000,,2013-07-26 12:22:00,
2013-07-26 07:33:00,67.0,66.0,-100.00,SSW,211,7.0,9.0,96,0.00,,,0.48,11.000000,,2013-07-26 12:33:00,
2013-07-26 07:43:00,67.0,66.0,-100.00,SSW,211,7.0,9.0,96,0.00,,,0.48,11.000000,,2013-07-26 12:43:00,
2013-07-26 08:12:00,70.0,68.0,-100.00,West,265,6.0,9.0,93,0.00,,,0.48,127.000000,,2013-07-26 13:12:00,
2013-07-26 08:23:00,70.0,68.0,-100.00,West,265,6.0,9.0,93,0.00,,,0.48,127.000000,,2013-07-26 13:23:00,
2013-07-26 08:32:00,70.0,68.0,-100.00,West,265,6.0,9.0,93,0.00,,,0.48,127.000000,,2013-07-26 13:32:00,
2013-07-26 08:43:00,70.0,68.0,-100.00,West,265,6.0,9.0,93,0.00,,,0.48,127.000000,,2013-07-26 13:43:00,
2013-07-26 09:12:00,72.0,68.0,-100.00,WNW,293,10.0,13.0,86,0.00,,,0.48,302.000000,,2013-07-26 14:12:00,
2013-07-26 09:22:00,72.0,68.0,-100.00,WNW,293,10.0,13.0,86,0.00,,,0.48,302.000000,,2013-07-26 14:22:00,
2013-07-26 09:32:00,72.0,68.0,-100.00,WNW,293,10.0,13.0,86,0.00,,,0.48,302.000000,,2013-07-26 14:32:00,
2013-07-26 09:43:00,72.0,68.0,-100.00,WNW,293,10.0,13.0,86,0.00,,,0.48,302.000000,,2013-07-26 14:43:00,
2013-07-26 10:12:00,75.0,68.0,-100.00,NW,309,9.0,14.0,78,0.00,,,0.48,525.000000,,2013-07-26 15:12:00,
2013-07-26 10:22:00,75.0,68.0,-100.00,NW,309,9.0,14.0,78,0.00,,,0.48,525.000000,,2013-07-26 15:22:00,
2013-07-26 10:33:00,75.0,68.0,-100.00,NW,309,9.0,14.0,78,0.00,,,0.48,525.000000,,2013-07-26 15:33:00,
2013-07-26 10:43:00,75.0,68.0,-100.00,NW,309,9.0,14.0,78,0.00,,,0.48,525.000000,,2013-07-26 15:43:00,
2013-07-26 11:14:00,74.0,66.0,-100.00,NW,310,14.0,20.0,76,0.00,,,0.48,428.000000,,2013-07-26 16:14:00,
2013-07-26 11:22:00,74.0,66.0,-100.00,NW,310,14.0,20.0,76,0.00,,,0.48,428.000000,,2013-07-26 16:22:00,
2013-07-26 11:32:00,74.0,66.0,-100.00,NW,310,14.0,20.0,76,0.00,,,0.48,428.000000,,2013-07-26 16:32:00,
2013-07-26 11:43:00,74.0,66.0,-100.00,NW,310,14.0,20.0,76,0.00,,,0.48,428.000000,,2013-07-26 16:43:00,
2013-07-26 12:12:00,78.0,61.0,-100.00,NW,319,12.0,19.0,55,0.00,,,0.48,839.000000,,2013-07-26 17:12:00,
2013-07-26 12:22:00,78.0,61.0,-100.00,NW,319,12.0,19.0,55,0.00,,,0.48,839.000000,,2013-07-26 17:22:00,
2013-07-26 12:33:00,78.0,61.0,-100.00,NW,319,12.0,19.0,55,0.00,,,0.48,839.000000,,2013-07-26 17:33:00,
2013-07-26 12:43:00,78.0,61.0,-100.00,NW,319,12.0,19.0,55,0.00,,,0.48,839.000000,,2013-07-26 17:43:00,
2013-07-26 13:12:00,77.0,56.0,-100.00,NW,317,18.0,26.0,49,0.00,,,0.48,1004.000000,,2013-07-26 18:12:00,
2013-07-26 13:23:00,77.0,56.0,-100.00,NW,317,18.0,26.0,49,0.00,,,0.48,1004.000000,,2013-07-26 18:23:00,
2013-07-26 13:33:00,77.0,56.0,-100.00,NW,317,18.0,26.0,49,0.00,,,0.48,1004.000000,,2013-07-26 18:33:00,
2013-07-26 13:43:00,77.0,56.0,-100.00,NW,317,18.0,26.0,49,0.00,,,0.48,1004.000000,,2013-07-26 18:43:00,
2013-07-26 14:12:00,77.0,52.0,-100.00,NW,308,17.0,24.0,42,0.00,,,0.48,1061.000000,,2013-07-26 19:12:00,
2013-07-26 14:22:00,77.0,52.0,-100.00,NW,308,17.0,24.0,42,0.00,,,0.48,1061.000000,,2013-07-26 19:22:00,
2013-07-26 14:32:00,77.0,52.0,-100.00,NW,308,17.0,24.0,42,0.00,,,0.48,1061.000000,,2013-07-26 19:32:00,
2013-07-26 14:43:00,77.0,52.0,-100.00,NW,308,17.0,24.0,42,0.00,,,0.48,1061.000000,,2013-07-26 19:43:00,
2013-07-26 15:12:00,77.0,55.0,-100.00,NW,318,17.0,24.0,46,0.00,,,0.48,1062.000000,,2013-07-26 20:12:00,
2013-07-26 15:22:00,77.0,55.0,-100.00,NW,318,17.0,24.0,46,0.00,,,0.48,1062.000000,,2013-07-26 20:22:00,
2013-07-26 15:32:00,77.0,55.0,-100.00,NW,318,17.0,24.0,46,0.00,,,0.48,1062.000000,,2013-07-26 20:32:00,
2013-07-26 15:43:00,77.0,55.0,-100.00,NW,318,17.0,24.0,46,0.00,,,0.48,1062.000000,,2013-07-26 20:43:00,
2013-07-26 16:12:00,77.0,56.0,-100.00,NW,323,18.0,27.0,48,0.00,,,0.48,995.000000,,2013-07-26 21:12:00,
2013-07-26 16:22:00,77.0,56.0,-100.00,NW,323,18.0,27.0,48,0.00,,,0.48,995.000000,,2013-07-26 21:22:00,
2013-07-26 16:32:00,77.0,56.0,-100.00,NW,323,18.0,27.0,48,0.00,,,0.48,995.000000,,2013-07-26 21:32:00,
2013-07-26 16:43:00,77.0,56.0,-100.00,NW,323,18.0,27.0,48,0.00,,,0.48,995.000000,,2013-07-26 21:43:00,
2013-07-26 17:12:00,74.0,55.0,-100.00,NNW,338,20.0,29.0,52,0.00,,,0.48,790.000000,,2013-07-26 22:12:00,
2013-07-26 17:22:00,74.0,55.0,-100.00,NNW,338,20.0,29.0,52,0.00,,,0.48,790.000000,,2013-07-26 22:22:00,
2013-07-26 17:33:00,74.0,55.0,-100.00,NNW,338,20.0,29.0,52,0.00,,,0.48,790.000000,,2013-07-26 22:33:00,
2013-07-26 17:43:00,74.0,55.0,-100.00,NNW,338,20.0,29.0,52,0.00,,,0.48,790.000000,,2013-07-26 22:43:00,
2013-07-26 18:12:00,72.0,53.0,-100.00,NNW,330,18.0,27.0,52,0.00,,,0.48,673.000000,,2013-07-26 23:12:00,
2013-07-26 18:22:00,72.0,53.0,-100.00,NNW,330,18.0,27.0,52,0.00,,,0.48,673.000000,,2013-07-26 23:22:00,
2013-07-26 18:32:00,72.0,53.0,-100.00,NNW,330,18.0,27.0,52,0.00,,,0.48,673.000000,,2013-07-26 23:32:00,
2013-07-26 18:43:00,72.0,53.0,-100.00,NNW,330,18.0,27.0,52,0.00,,,0.48,673.000000,,2013-07-26 23:43:00,
2013-07-26 19:12:00,71.0,51.0,-100.00,NNW,331,16.0,25.0,50,0.00,,,-99.99,425.000000,,2013-07-27 00:12:00,
2013-07-26 19:22:00,71.0,51.0,-100.00,NNW,331,16.0,25.0,50,0.00,,,-99.99,425.000000,,2013-07-27 00:22:00,
2013-07-26 19:32:00,71.0,51.0,-100.00,NNW,331,16.0,25.0,50,0.00,,,-99.99,425.000000,,2013-07-27 00:32:00,
2013-07-26 19:43:00,71.0,51.0,-100.00,NNW,331,16.0,25.0,50,0.00,,,-99.99,425.000000,,2013-07-27 00:43:00,
2013-07-26 20:12:00,69.0,52.0,-100.00,NW,320,11.0,20.0,55,0.00,,,0.48,242.000000,,2013-07-27 01:12:00,
2013-07-26 20:22:00,69.0,52.0,-100.00,NW,320,11.0,20.0,55,0.00,,,0.48,242.000000,,2013-07-27 01:22:00,
2013-07-26 20:32:00,69.0,52.0,-100.00,NW,320,11.0,20.0,55,0.00,,,0.48,242.000000,,2013-07-27 01:32:00,
2013-07-26 20:43:00,69.0,52.0,-100.00,NW,320,11.0,20.0,55,0.00,,,0.48,242.000000,,2013-07-27 01:43:00,
2013-07-26 21:12:00,64.0,54.0,-100.00,NW,318,8.0,13.0,70,0.00,,,0.48,49.000000,,2013-07-27 02:12:00,
2013-07-26 21:22:00,64.0,54.0,-100.00,NW,318,8.0,13.0,70,0.00,,,0.48,49.000000,,2013-07-27 02:22:00,
2013-07-26 21:32:00,64.0,54.0,-100.00,NW,318,8.0,13.0,70,0.00,,,0.48,49.000000,,2013-07-27 02:32:00,
2013-07-26 21:43:00,64.0,54.0,-100.00,NW,318,8.0,13.0,70,0.00,,,0.48,49.000000,,2013-07-27 02:43:00,
2013-07-26 22:12:00,62.0,54.0,-100.00,NW,315,7.0,10.0,74,0.00,,,0.48,0.000000,,2013-07-27 03:12:00,
2013-07-26 22:22:00,62.0,54.0,-100.00,NW,315,7.0,10.0,74,0.00,,,0.48,0.000000,,2013-07-27 03:22:00,
2013-07-26 22:33:00,62.0,54.0,-100.00,NW,315,7.0,10.0,74,0.00,,,0.48,0.000000,,2013-07-27 03:33:00,
2013-07-26 22:44:00,62.0,54.0,-100.00,NW,315,7.0,10.0,74,0.00,,,0.48,0.000000,,2013-07-27 03:44:00,
2013-07-26 23:12:00,60.0,53.0,-100.00,NNW,333,9.0,12.0,79,0.00,,,0.48,0.000000,,2013-07-27 04:12:00,
2013-07-26 23:22:00,60.0,53.0,-100.00,NNW,333,9.0,12.0,79,0.00,,,0.48,0.000000,,2013-07-27 04:22:00,
2013-07-26 23:32:00,60.0,53.0,-100.00,NNW,333,9.0,12.0,79,0.00,,,0.48,0.000000,,2013-07-27 04:32:00,
2013-07-26 23:43:00,60.0,53.0,-100.00,NNW,333,9.0,12.0,79,0.00,,,0.48,0.000000,,2013-07-27 04:43:00,